Location: ?????
(44.6122°N, 135.4268°E)
Time: 06:20:18
(UTC+00:00)

Daily predictions for brighter satellites

Satellite Brightness Start Highest point End
(mag) Time Altitude Azimuth Time Altitude Azimuth Time Altitude Azimuth
CZ-3 R/B 4.5 18:01:03 29° SSW 18:04:49 31° S 18:13:50 10° ESE
ACS3 Solar Sail 4.0 17:59:54 10° NNE 18:00:59 16° NNE 18:00:59 16° NNE
ADEOS Rocket 4.5 18:07:23 10° NNE 18:11:06 36° NNE 18:11:06 36° NNE
SJ 16-02 4.4 18:21:09 12° ENE 18:21:09 12° ENE 18:22:01 10° E
USA 234 4.2 18:22:41 10° E 18:28:34 39° NNE 18:28:34 39° NNE
Cosmos 2278 Rocket 4.3 18:54:57 16° SSE 18:54:57 16° SSE 18:56:00 10° SSE
Cosmos 1943 Rocket 4.5 18:55:59 12° SSE 18:55:59 12° SSE 18:56:21 10° SSE
Cosmos 1802 Rocket 4.3 18:52:09 61° SE 18:52:09 61° SE 18:57:21 10° SSE
Cosmos 2237 Rocket 3.2 18:54:15 39° NNE 18:54:15 39° NNE 18:57:42 10° NNE
ARGOS 4.2 18:50:08 10° NNE 18:53:27 38° NNE 18:53:27 38° NNE
Cosmos 2369 Rocket 4.2 18:57:43 13° N 19:01:24 23° NE 19:05:54 10° E
Cosmos 2123 Rocket 4.1 19:07:39 61° N 19:07:39 61° N 19:12:40 10° N
Cosmos 2016 Rocket 3.9 19:06:34 10° N 19:12:59 87° E 19:19:18 10° S
Cosmos 1932 4.5 19:19:03 64° SW 19:19:03 64° SW 19:25:07 10° SSE
Cosmos 2292 Rocket 4.0 19:27:25 75° SW 19:27:48 80° W 19:34:10 10° N
Meteor 2-16 Rocket 4.3 19:28:42 63° WSW 19:29:21 68° W 19:35:29 10° N
BREEZE-M DEB (TANK) 4.3 19:32:15 28° ENE 19:32:15 28° ENE 19:33:18 10° ENE
Orbus 7S? 4.0 19:32:14 53° NNE 19:32:14 53° NNE 19:34:49 10° NE
USA 267 3.1 19:28:34 10° NE 19:35:08 88° NW 19:37:42 41° SW
Cosmos 1656 Rocket 3.9 19:32:37 28° NNW 19:35:41 69° ENE 19:41:19 10° SE
Cosmos 1420 Rocket 4.0 19:40:12 60° NW 19:40:12 60° NW 19:45:11 10° NNE
Cosmos 1624 Rocket 3.9 19:37:10 22° SSW 19:40:35 82° ESE 19:45:47 10° NNE
Gbstr 26 Del rocket 4.2 19:40:22 36° NNW 19:41:05 38° N 19:46:34 10° ENE
Cosmos 2251 Rocket 3.4 19:41:17 63° W 19:41:33 64° WSW 19:46:49 10° S
NOSS 3-1 (A) 4.1 19:43:59 30° NNW 19:43:59 30° NNW 19:48:30 10° NNE
PAYLOAD A 4.0 19:39:58 10° N 19:45:15 61° WNW 19:46:12 52° WSW
ATLAS 3B R/B 3.3 19:40:37 10° SSW 19:47:57 65° ESE 19:55:43 10° NE
ACS3 Solar Sail 3.5 19:43:35 10° N 19:45:05 16° NNW 19:45:05 16° NNW
CENTAUR R/B 3.7 19:44:01 16° NNW 19:50:49 61° NE 20:00:06 10° SE
USA 306 4.0 19:53:20 25° NNE 19:53:20 25° NNE 19:55:26 10° NE
SJ-11-01 4.3 19:49:40 10° NNE 19:54:24 83° ESE 19:59:06 10° SSW
CZ-2C R/B 3.2 19:50:01 10° N 19:53:37 36° NW 19:53:37 36° NW
SL-16 R/B 2.2 19:50:08 10° SSW 19:55:49 81° ESE 20:01:32 10° NNE
SJ 16-02 1.1 19:57:46 57° NW 19:58:27 69° WSW 20:02:40 10° S
ADEOS Rocket 4.4 19:53:51 10° N 19:58:01 24° NW 19:58:01 24° NW
Lacrosse 5 rocket 2.9 20:00:07 17° N 20:00:46 18° NNE 20:03:10 10° ENE
COSMO-SKYMED 1 3.4 19:58:04 10° SE 20:02:01 48° ENE 20:06:00 10° N
SKYMED 2 3.7 20:00:03 10° SSE 20:04:22 74° ENE 20:08:43 10° N
Cosmos 1812 2.1 20:05:05 68° ENE 20:05:12 69° E 20:08:04 10° SSE
Cosmos 2061 Rocket 4.0 20:01:50 10° NNW 20:07:51 55° W 20:13:51 10° SSW
Cosmos 1400 Rocket 3.6 20:06:36 10° N 20:10:11 47° ENE 20:13:43 10° SSE
USA 234 3.2 20:04:40 10° SE 20:11:14 88° NE 20:15:55 21° NW
Cosmos 1869 2.9 20:12:26 55° W 20:12:26 55° W 20:15:51 10° S
Helios 1A Rocket 2.5 20:09:31 10° SSE 20:12:52 75° ENE 20:15:29 16° N
Cosmos 2233 Rocket 4.2 20:09:08 10° NNW 20:15:03 44° W 20:20:53 10° SSW
Aureole 3 4.0 20:09:31 10° SSW 20:15:22 61° W 20:20:16 10° N
Cosmos 1447 Rocket 4.5 20:13:29 10° SSW 20:19:39 62° W 20:25:56 10° N
Cosmos 676 Rocket 4.0 20:17:16 18° NNW 20:21:03 55° WSW 20:26:04 10° S
Cosmos 1674 Rocket 4.0 20:16:43 10° S 20:21:05 64° E 20:25:28 10° NNE
Lacrosse 4 Rocket 3.9 20:18:52 10° N 20:21:22 16° NE 20:23:49 10° E
Aureole 3 Rocket 3.9 20:19:01 10° NNW 20:24:21 72° W 20:31:49 10° S
Cosmos 1464 Rocket 4.2 20:21:54 10° N 20:28:03 72° E 20:34:09 10° SSE
Cosmos 2056 Rocket 4.0 20:24:50 11° SW 20:29:38 39° WNW 20:34:41 10° N
Cosmos 2263 4.4 20:24:54 10° NNW 20:30:43 74° ENE 20:36:27 10° SSE
Cosmos 2221 Rocket 4.3 20:30:28 10° S 20:34:54 58° E 20:39:22 10° NNE
ARGOS 4.5 20:31:34 10° NNW 20:34:54 19° NW 20:34:54 19° NW
Cosmos 2237 Rocket 3.5 20:36:06 18° NW 20:36:49 18° NW 20:40:42 10° N
NOSS 2-2 (C) 4.3 20:33:42 13° NNW 20:37:10 52° NE 20:42:24 10° SE
Cosmos 371 Rocket 4.0 20:36:46 18° NW 20:39:34 32° WSW 20:43:51 10° SSW
Cosmos 2297 3.6 20:36:04 10° NNW 20:41:43 73° WSW 20:47:18 10° SSE
Cosmos 2151 Rocket 3.5 20:37:38 10° NNW 20:42:08 77° W 20:46:34 10° S
IRS-1D 3.7 20:37:53 10° N 20:42:35 45° WNW 20:47:14 10° SW
Cosmos 2369 Rocket 2.2 20:40:16 10° NNW 20:45:54 66° WSW 20:51:32 10° SSE
Cosmos 1943 3.4 20:40:24 10° SSW 20:45:59 75° ESE 20:51:36 10° NNE
Cosmos 1378 Rocket 3.7 20:44:17 10° SSW 20:48:22 45° WNW 20:52:30 10° N
CZ-4 R/B 4.2 20:45:25 10° N 20:49:57 41° WNW 20:54:22 10° SW
Sich 1 Rocket 3.7 20:45:46 10° N 20:50:19 84° E 20:54:48 10° S
Cosmos 968 Rocket 3.5 20:45:54 10° NNW 20:51:05 61° WSW 20:56:14 10° S
Cosmos 2242 Rocket 4.5 20:51:34 10° SW 20:55:15 26° WNW 20:58:59 10° NNW
Cosmos 1741 Rocket 4.0 20:52:04 10° NNW 20:57:22 74° WSW 21:02:39 10° SSE
Okean 1 Rocket 2.9 20:53:32 10° N 20:57:52 82° W 21:02:09 10° S
Cosmos 1072 Rocket 4.5 20:54:14 10° NNW 21:00:15 61° W 21:06:19 10° S
Cosmos 1110 Rocket 4.2 20:59:23 10° SW 21:04:30 49° WNW 21:09:41 10° NNE
IGS 5A 3.4 21:00:34 10° NNE 21:04:37 88° ESE 21:08:36 10° SSW
Cosmos 2084 3.9 21:02:00 10° NNW 21:06:00 54° NE 21:09:54 10° SE
Cosmos 1302 Rocket 4.2 21:02:55 10° SSW 21:08:03 75° ESE 21:13:14 10° NNE
Cosmos 332 Rocket 3.8 21:03:57 10° NNW 21:08:41 61° WSW 21:13:21 10° S
Thor Agena Rocket 3.8 21:08:26 10° NNE 21:13:39 77° ESE 21:18:46 10° S
BREEZE-M DEB (TANK) 3.3 21:15:08 10° SW 21:17:21 46° SE 21:20:36 10° ENE
USA 267 3.9 21:11:46 10° NE 21:17:43 39° NNW 21:23:41 10° W
USA 229 DEB 3.9 21:12:24 10° WSW 21:18:05 43° NW 21:24:29 10° NNE
USA 229 3.9 21:12:36 10° WSW 21:18:18 43° NW 21:24:42 10° NNE
Cosmos 1818 3.8 21:13:51 10° SSW 21:19:15 81° ESE 21:24:43 10° NE
Iridium 45 4.2 21:16:48 10° N 21:19:59 86° W 21:23:11 10° S
USA 306 4.2 21:18:54 10° NW 21:21:30 19° N 21:24:22 10° NE
NOSS 3-2 (A) 4.2 21:14:19 10° NW 21:21:48 87° NE 21:30:46 10° SE
Cosmos 1315 Rocket 4.0 21:20:13 10° N 21:23:55 43° ENE 21:27:34 10° SSE
